Theta_e
316 316 316 316 315 313 313 314 314 313 313 312 312 311 311 314 315 315 315 312 311 310
316 315 313 314 315 316 315 314 314 313 313 312 312 311 310 310 311 312 313 313 312 311
315 315 315 314 313 311 311 312 312 313 312 312 311 310 309 309 309 310 311 311 311 311
315 315 315 314 314 313 313 312 309 309 310 309 308 308 307 307 308 307 307 308 309 309
316 317 315 314 314 314 312 311 311 310 308 307 307 306 307 307 305 305 304 304 305 306
315 316 317 317 317 316 314 311 311 310 308 307 306 305 304 303 302 302 303 303 301 301
311 314 314 317 316 314 313 312 313 312 311 309 306 305 304 303 302 302 301 300 299 297
308 311 314 313 313 314 312 312 310 309 309 309 307 306 305 304 303 302 299 298 297 296
305 306 308 310 311 310 310 309 310 309 307 305 305 304 304 304 302 300 299 296 295 295
301 303 304 305 307 307 308 309 308 306 306 304 304 303 303 302 301 299 297 297 295 293
298 300 302 304 304 305 307 308 309 308 306 306 305 302 302 302 300 298 297 294 294 292
296 297 299 299 301 301 301 302 303 303 304 303 302 301 302 300 297 295 293 293 293 292
295 295 295 296 298 299 299 298 299 298 300 301 300 301 301 298 294 291 290 291 292 293
292 293 293 294 295 295 296 296 296 296 297 298 299 300 299 297 293 291 289 289 289 291
Wind_Speed
11 6 6 11 10 11 11 12 15 16 15 16 15 14 14 10 10 12 10 15 12 9
9 9 6 7 8 7 10 9 14 15 15 16 16 15 14 10 13 13 13 12 13 10
9 8 9 7 7 6 3 5 10 13 14 14 13 14 15 12 13 14 11 9 13 11
6 6 8 10 11 8 8 8 7 8 11 13 13 12 11 13 13 14 12 11 12 12
9 10 8 6 7 11 12 12 12 11 9 9 9 9 12 13 10 13 12 11 13 13
6 7 9 10 10 11 10 8 7 10 12 13 12 10 9 8 10 9 9 9 9 8
6 2 3 5 7 7 8 10 12 12 13 11 9 10 11 11 10 12 11 9 8 8
8 7 3 1 2 4 6 7 7 8 8 9 9 8 12 12 13 13 11 9 8 9
8 7 7 5 1 2 3 3 5 9 8 8 7 12 17 15 11 12 12 12 11 9
8 7 7 7 5 3 1 2 5 5 6 8 8 14 18 18 10 11 11 13 10 9
9 8 6 5 4 3 1 4 5 8 7 7 8 14 18 18 9 9 10 11 11 12
11 9 8 7 6 3 1 1 2 2 5 7 6 15 18 15 9 9 9 9 11 13
11 10 9 9 7 4 2 2 2 2 3 5 5 13 18 14 7 9 8 8 8 18
12 11 10 9 7 6 3 2 1 2 2 3 5 9 21 20 10 9 9 9 9 9
Wind_Direction
172 177 177 193 186 187 190 192 185 192 196 197 197 198 198 197 201 199 203 205 207 204
164 162 165 181 186 192 197 191 192 195 198 199 196 198 193 199 201 205 207 210 211 209
164 173 186 168 175 165 145 153 187 195 200 199 201 199 198 203 207 206 206 207 205 206
168 183 173 182 188 179 184 182 174 171 188 192 194 199 200 206 201 204 202 202 208 200
169 180 193 175 168 178 195 187 187 182 180 186 192 191 203 204 197 204 204 204 209 204
155 183 198 194 183 192 177 159 172 187 185 193 191 193 206 191 174 196 197 198 194 180
42 144 189 209 203 191 169 173 190 194 195 194 175 184 187 188 197 198 189 183 177 171
11 12 33 179 175 188 169 192 187 184 190 187 187 188 193 200 200 193 181 174 177 177
27 22 22 22 55 148 168 159 172 190 179 175 189 186 193 188 190 190 182 172 168 158
25 36 24 10 7 12 199 176 186 176 185 197 197 184 184 184 179 177 178 168 160 155
19 16 21 23 28 6 335 215 205 205 198 209 213 187 186 181 171 170 169 163 160 154
1 4 7 14 356 7 344 274 236 222 195 194 195 190 186 166 163 157 155 157 160 159
359 1 357 1 349 337 323 291 249 230 209 202 182 186 171 157 150 145 147 147 150 160
352 353 354 352 343 329 335 306 208 195 196 192 179 179 167 164 159 157 153 153 155 162